Weather History for EGDR - January, 2013

Change the Weather History Date:

Saturday, January 19, 2013

  Actual Average Record
Temperature  
Mean Temperature 36 °F -  
Max Temperature 40 °F 46 °F 53 °F (2007)
Min Temperature 32 °F 38 °F 30 °F (2011)
Degree Days  
Heating Degree Days 29    
Moisture  
Dew Point 35 °F    
Average Humidity 91    
Maximum Humidity 100    
Minimum Humidity 81    
Precipitation  
Precipitation 0.00 in - - ()
Sea Level Pressure  
Sea Level Pressure 29.38 in    
Wind  
Wind Speed 12 mph ()    
Max Wind Speed 18 mph    
Max Gust Speed -    
Visibility 4.8 miles    
Events Fog    
Averages and records for this station are not official NWS values.
T = Trace of Precipitation, MM = Missing Value Source: Averaged Metar Reports

Daily Weather History Graph

Daily Weather History Graph

Search for Another Location

Airport or City:

Trip Planner

Search our weather history database for the weather conditions in past years. The results will help you decide how hot, cold, wet, or windy it might be!

Date:

Astronomy

Jan. 19, 2013 Rise Set
Actual Time 8:10 AM GMT 4:53 PM GMT
Civil Twilight 7:33 AM GMT 5:30 PM GMT
Nautical Twilight 6:53 AM GMT 6:10 PM GMT
Astronomical Twilight 6:15 AM GMT 6:48 PM GMT
Moon 11:20 AM GMT (1/19) 1:20 AM GMT (1/19)
Length of Visible Light 9h 56m
Length of Day
8h 43m
First Quarter, 55% of the Moon is Illuminated
Jan 19
First Quarter
Jan 27
Full
Feb 3
Last Quarter
Feb 10
New
Feb 17
First Quarter

Hourly Weather History & Observations

Time (GMT) Temp. Windchill Dew Point Humidity Pressure Visibility Wind Dir Wind Speed Gust Speed Precip Events Conditions
12:50 AM 41.0 °F 34.3 °F 41.0 °F 100% 29.24 in 2.5 mi ENE 11.5 mph - N/A Fog Fog
1:50 AM 41.0 °F 32.8 °F 41.0 °F 100% 29.24 in 2.5 mi East 16.1 mph - N/A Fog Fog
2:50 AM 41 °F - 40 °F 92% 29.27 in 3 mi East 13.8 mph - - Fog Light Fog
2:50 AM 41.0 °F 33.5 °F 39.2 °F 93% 29.24 in 3.1 mi East 13.8 mph - N/A   Haze
3:50 AM 41.0 °F 33.5 °F 39.2 °F 93% 29.27 in 3.1 mi East 13.8 mph - N/A   Haze
4:50 AM 41.0 °F 32.8 °F 39.2 °F 93% 29.27 in 5.0 mi East 16.1 mph - N/A   Haze
5:50 AM 40 °F - 38 °F 91% 29.31 in 5 mi East 16.1 mph - -   Haze
5:50 AM 41.0 °F 32.8 °F 39.2 °F 93% 29.30 in 5.0 mi East 16.1 mph - N/A   Haze
6:50 AM 39.2 °F 31.2 °F 37.4 °F 93% 29.30 in 3.1 mi ENE 13.8 mph - N/A   Haze
7:50 AM 39.2 °F 30.5 °F 37.4 °F 93% 29.33 in 2.5 mi East 16.1 mph - N/A   Haze
8:50 AM 39 °F - 37 °F 91% 29.36 in 5 mi East 17.3 mph - -   Haze
8:50 AM 39.2 °F 30.2 °F 37.4 °F 93% 29.33 in 5.0 mi East 17.3 mph - N/A   Haze
9:50 AM 37.4 °F 27.5 °F 35.6 °F 93% 29.36 in 5.0 mi ENE 18.4 mph - N/A   Haze
10:50 AM 37.4 °F 28.5 °F 33.8 °F 87% 29.36 in 6.2 mi ENE 15.0 mph - N/A   Haze
11:50 AM 38 °F - 35 °F 84% 29.39 in 6 mi ENE 15.0 mph - -   Haze
11:50 AM 37.4 °F 28.5 °F 35.6 °F 93% 29.36 in 6.2 mi ENE 15.0 mph - N/A   Haze
12:50 PM 37.4 °F 28.5 °F 33.8 °F 87% 29.39 in 6.2 mi ENE 15.0 mph - N/A   Haze
1:50 PM 39.2 °F 30.8 °F 35.6 °F 87% 29.39 in 6.2 mi NE 15.0 mph - N/A   Haze
2:50 PM 36 °F - 32 °F 81% 29.43 in 9 mi ENE 11.5 mph - -   Haze
2:50 PM 35.6 °F 27.5 °F 32.0 °F 87% 29.42 in 6.2 mi ENE 11.5 mph - N/A   Haze
3:50 PM 35.6 °F 27.1 °F 32.0 °F 87% 29.42 in 6.2 mi NE 12.7 mph - N/A   Haze
4:50 PM 35.6 °F 29.9 °F 32.0 °F 87% 29.44 in 6.2 mi NE 6.9 mph - N/A   Haze
5:50 PM 34 °F - 32 °F 87% 29.48 in 7 mi NE 8.1 mph - -   Haze
5:50 PM 33.8 °F 27.0 °F 32.0 °F 93% 29.44 in 6.2 mi NE 8.1 mph - N/A   Haze
6:50 PM 32.0 °F 24.8 °F 30.2 °F 93% 29.47 in 3.7 mi ENE 8.1 mph - N/A   Haze
7:50 PM 32.0 °F 24.8 °F 30.2 °F 93% 29.47 in 3.7 mi ENE 8.1 mph - N/A   Haze
8:50 PM 33 °F - 30 °F 86% 29.50 in 3 mi ENE 9.2 mph - -   Haze
8:50 PM 32.0 °F 24.2 °F 30.2 °F 93% 29.47 in 3.1 mi ENE 9.2 mph - N/A   Haze
9:50 PM 33.8 °F 27.7 °F 30.2 °F 87% 29.47 in 3.7 mi NE 6.9 mph - N/A   Haze
10:50 PM 33.8 °F 26.4 °F 32.0 °F 93% 29.47 in 3.7 mi NE 9.2 mph - N/A   Haze
11:50 PM 33 °F - 31 °F 89% 29.50 in 5 mi NE 11.5 mph - -   Haze
11:50 PM 33.8 °F 25.3 °F 30.2 °F 87% 29.47 in 5.0 mi NE 11.5 mph - N/A   Haze